[[{"header":{"parameterUnit":"m.s-1","parameterCategory":1,"la1":30.2991,"la2":30.254,"lo1":-89.0895,"lo2":-89.0444,"dy":0.0017,"dx":0.0017,"nx":28,"ny":28,"refTime":"2025-08-04T09:00:00:Z","depth":0,"parameterNumber":2,"parameterNumberName":"U-component_of_WINDS"},"data":[0,0,0,0,0,0,0,0,0,0,0,0,0,0,0,0,0,0,0,0,0,0,0,0,0,0,0,0,0,0,0,0,0,0,0,0,0,0,0,0,0,0,0,0,0,0,0,0,0,0,0,0,0,0,0,0,0,0,0.5343,0.5342,0,0.5309,0.5309,0.5309,0.5299,0.5299,0.53,0.53,0.526,0.5259,0.5258,0,0,0,0,0,0,0,0,0,0,0,0,0,0.5392,0.5391,0.5343,0.5342,0.5342,0.531,0.5309,0.5309,0.5299,0.5299,0.53,0.53,0.526,0.5259,0.5257,0,0,0,0,0,0,0,0,0,0,0,0,0,0.5366,0.5391,0.5343,0.5333,0.5332,0.531,0.5309,0.5308,0.5299,0.5299,0.53,0.53,0.5261,0.5259,0.5257,0.524,0,0,0.5252,0.5251,0,0,0,0,0,0,0,0,0.5367,0.5364,0.5335,0.5334,0.5333,0.5309,0.5312,0.5285,0.5299,0.5312,0.53,0.53,0.5276,0.5273,0.5266,0.5238,0.5236,0.5251,0.525,0.5249,0.5249,0,0,0,0,0,0,0,0.5369,0.5365,0.5329,0.5335,0.5333,0.5329,0.5326,0.5307,0.5292,0.531,0.531,0.5306,0.5275,0.5267,0.5265,0.5236,0.5251,0.525,0.5249,0.5248,0.5191,0.519,0,0,0,0,0,0,0.5373,0.5367,0.533,0.5328,0.5351,0.5328,0.5324,0.5316,0.5292,0.5289,0.5306,0.5306,0.527,0.5267,0.5263,0.5241,0.5249,0.5248,0.5247,0.5191,0.5191,0.519,0,0,0,0,0,0,0.5375,0.537,0.5332,0.5348,0.5342,0.5327,0.5318,0.5315,0.5308,0.5289,0.5286,0.5301,0.5271,0.5266,0.5246,0.5239,0.5247,0.5245,0.5192,0.5191,0.5191,0.5196,0,0,0,0,0,0,0.5376,0.5371,0.5365,0.5348,0.5342,0.5317,0.5318,0.5314,0.5305,0.5305,0.5284,0.5281,0.527,0.5249,0.5244,0.5237,0.5244,0.5192,0.5191,0.5191,0.5196,0.5195,0.5195,0,0,0,0,0,0.5378,0.5367,0.5365,0.5361,0.5335,0.5317,0.5313,0.5303,0.5305,0.5298,0.5286,0.5281,0.5241,0.5247,0.5241,0.5233,0.5193,0.5192,0.5191,0.5196,0.5196,0.5195,0,0,0,0,0,0,0.5382,0.5364,0.5362,0.5346,0.5333,0.5315,0.5307,0.5303,0.5288,0.5288,0.5274,0.5269,0.525,0.524,0.5247,0.5215,0.5216,0.5214,0.5222,0.5222,0.5221,0.5223,0.5242,0,0,0,0,0,0.5382,0.537,0.5355,0.5341,0.5335,0.5322,0.5314,0.5308,0.5293,0.5287,0.5273,0.5258,0.5241,0.5231,0.5215,0.5195,0.5189,0.5186,0.5186,0.5185,0.5183,0.5171,0.5169,0.5187,0.5187,0.5187,0,0,0.538,0.5368,0.5362,0.5342,0.5331,0.5318,0.5317,0.5303,0.5293,0.5284,0.5265,0.5255,0.5236,0.5216,0.5206,0.5206,0.5177,0.5184,0.5184,0.5182,0.517,0.5168,0.5167,0.5187,0.5187,0.5187,0,0,0.5369,0.536,0.5348,0.5338,0.5323,0.5314,0.5311,0.5294,0.5287,0.5268,0.5261,0.5247,0.522,0.5207,0.5197,0.5182,0.5176,0.5176,0.5173,0.5161,0.516,0.5158,0.5152,0.515,0.5175,0.5175,0.5175,0,0.5368,0.535,0.5342,0.5329,0.5319,0.5313,0.5299,0.5289,0.5269,0.5262,0.5263,0.5228,0.5215,0.5192,0.5188,0.518,0.5175,0.5179,0.5161,0.5159,0.5158,0.5152,0.515,0.5175,0.5175,0.5175,0.5175,0,0.5349,0.5336,0.5328,0.531,0.53,0.5287,0.5275,0.5265,0.526,0.5251,0.5231,0.5215,0.5196,0.519,0.5183,0.5165,0.5165,0.5164,0.5165,0.5157,0.515,0.5148,0.5175,0.5175,0.5175,0.5175,0,0,0.534,0.5319,0.5316,0.5307,0.529,0.5279,0.5265,0.5248,0.5239,0.5225,0.5212,0.5189,0.5187,0.5176,0.5168,0.5158,0.5146,0.5157,0.5156,0.5155,0.5123,0.5124,0.5122,0.5142,0.5142,0.5141,0.5124,0,0.5327,0.5303,0.5296,0.5275,0.5262,0.5256,0.5243,0.523,0.5221,0.5207,0.5196,0.518,0.518,0.5173,0.5162,0.5149,0.5139,0.515,0.5128,0.5127,0.5132,0.5119,0.512,0.5105,0.5122,0.5122,0.5121,0,0.5308,0.5296,0.5275,0.5259,0.5254,0.5243,0.5226,0.5214,0.5198,0.5192,0.518,0.5173,0.5155,0.5158,0.5133,0.5142,0.5132,0.5124,0.5123,0.512,0.5123,0.5114,0.51,0.5097,0.5118,0.5118,0.5118,0,0.5303,0.5281,0.5266,0.5259,0.524,0.5232,0.5224,0.5209,0.5199,0.5184,0.5177,0.516,0.515,0.5135,0.5123,0.5126,0.5099,0.5101,0.5092,0.5092,0.5086,0.5086,0.5068,0.508,0.508,0.508,0.508,0,0.5289,0.5276,0.5263,0.5254,0.5238,0.5229,0.5214,0.5204,0.5191,0.5178,0.5171,0.5158,0.5143,0.5128,0.5118,0.5098,0.5094,0.5087,0.5084,0.5088,0.5088,0.508,0.5081,0.508,0.508,0.508,0.508,0,0.528,0.5272,0.5254,0.5238,0.5234,0.5224,0.5209,0.5198,0.5189,0.5173,0.5168,0.5153,0.5135,0.5122,0.5098,0.5091,0.507,0.5067,0.5076,0.5074,0.5066,0.5066,0.5042,0.5037,0.5053,0.5053,0.5053,0,0.5272,0.5262,0.5246,0.5238,0.523,0.5217,0.5207,0.5197,0.5187,0.5169,0.516,0.5142,0.5127,0.5098,0.5083,0.5064,0.5061,0.5054,0.5058,0.5061,0.506,0.506,0.5059,0.5053,0.5053,0.5052,0.5052,0,0.5257,0.5253,0.5241,0.5227,0.5216,0.5204,0.5192,0.5185,0.5172,0.5161,0.5144,0.5132,0.5109,0.509,0.507,0.5059,0.5053,0.5051,0.5048,0.5051,0.5056,0.5052,0.5073,0.5052,0.5052,0.5052,0.5052,0.5052,0.5248,0.5239,0.5226,0.5212,0.5203,0.5191,0.5181,0.5171,0.5157,0.5138,0.5133,0.5114,0.5098,0.5071,0.5059,0.5043,0.5043,0.5039,0.5038,0.5036,0.5036,0.5059,0.504,0.504,0.504,0.504,0.504,0,0.5232,0.5224,0.5212,0.5196,0.5184,0.5182,0.5168,0.5158,0.5143,0.513,0.5116,0.5095,0.5077,0.5061,0.5042,0.5032,0.5029,0.5027,0.5028,0.5025,0.5038,0.5042,0.5031,0.5031,0.5031,0.5031,0.5031,0.5031,0.5223,0.5208,0.5202,0.5181,0.5172,0.5156,0.5148,0.5137,0.5126,0.5105,0.5091,0.5081,0.5066,0.5046,0.5029,0.5024,0.5017,0.5016,0.5011,0.5023,0.5024,0.5025,0.5029,0.5015,0.5015,0.4999,0.4999,0.4999]},{"header":{"parameterUnit":"m.s-1","parameterCategory":1,"la1":30.2991,"la2":30.254,"lo1":-89.0895,"lo2":-89.0444,"dy":0.0017,"dx":0.0017,"nx":28,"ny":28,"refTime":"2025-08-04T09:00:00:Z","depth":0,"parameterNumber":3,"parameterNumberName":"V-component_of_WINDS"},"data":[0,0,0,0,0,0,0,0,0,0,0,0,0,0,0,0,0,0,0,0,0,0,0,0,0,0,0,0,0,0,0,0,0,0,0,0,0,0,0,0,0,0,0,0,0,0,0,0,0,0,0,0,0,0,0,0,0,0,-1.4045,-1.4046,0,-1.4119,-1.412,-1.4121,-1.4114,-1.4113,-1.4112,-1.4111,-1.4189,-1.4192,-1.4195,0,0,0,0,0,0,0,0,0,0,0,0,0,-1.3901,-1.3903,-1.4045,-1.4046,-1.4047,-1.4119,-1.412,-1.4121,-1.4114,-1.4113,-1.4111,-1.411,-1.4188,-1.4191,-1.4195,0,0,0,0,0,0,0,0,0,0,0,0,0,-1.3968,-1.3904,-1.4045,-1.4052,-1.4054,-1.4119,-1.412,-1.4121,-1.4115,-1.4113,-1.4111,-1.4109,-1.4186,-1.4191,-1.4196,-1.4259,0,0,-1.421,-1.4212,0,0,0,0,0,0,0,0,-1.3964,-1.3973,-1.405,-1.4052,-1.4054,-1.4106,-1.4098,-1.4168,-1.4115,-1.4092,-1.4111,-1.4109,-1.4163,-1.4169,-1.4187,-1.4263,-1.4266,-1.421,-1.4213,-1.4215,-1.4217,0,0,0,0,0,0,0,-1.396,-1.397,-1.4075,-1.4052,-1.4054,-1.4053,-1.406,-1.4111,-1.4136,-1.4093,-1.4093,-1.4102,-1.4163,-1.4182,-1.4189,-1.4267,-1.421,-1.4214,-1.4217,-1.4219,-1.44,-1.4402,0,0,0,0,0,0,-1.3953,-1.3966,-1.4072,-1.4077,-1.4004,-1.4057,-1.4065,-1.4091,-1.4135,-1.414,-1.4103,-1.4101,-1.4175,-1.4183,-1.4191,-1.4269,-1.4215,-1.422,-1.4222,-1.4398,-1.44,-1.4402,0,0,0,0,0,0,-1.395,-1.3962,-1.4069,-1.4022,-1.4035,-1.4061,-1.409,-1.4093,-1.4112,-1.4143,-1.4147,-1.4118,-1.4174,-1.4185,-1.4242,-1.4272,-1.4222,-1.4226,-1.4396,-1.4399,-1.4401,-1.4425,0,0,0,0,0,0,-1.3946,-1.3961,-1.3985,-1.4022,-1.4038,-1.4118,-1.4091,-1.4096,-1.412,-1.4118,-1.4158,-1.4163,-1.4173,-1.4235,-1.4247,-1.4277,-1.423,-1.4393,-1.4397,-1.44,-1.4422,-1.4429,-1.4434,0,0,0,0,0,-1.3941,-1.3989,-1.3986,-1.3999,-1.4068,-1.412,-1.4129,-1.414,-1.4122,-1.4147,-1.4167,-1.4161,-1.4266,-1.4241,-1.4254,-1.4287,-1.4391,-1.4396,-1.44,-1.4419,-1.4427,-1.4434,0,0,0,0,0,0,-1.3956,-1.3994,-1.3991,-1.4053,-1.4083,-1.4119,-1.415,-1.4148,-1.4184,-1.4181,-1.4193,-1.4203,-1.4261,-1.4279,-1.4251,-1.4351,-1.4327,-1.4334,-1.4337,-1.4345,-1.4351,-1.4345,-1.4234,0,0,0,0,0,-1.3966,-1.4005,-1.4036,-1.4088,-1.4103,-1.4124,-1.4147,-1.4153,-1.4185,-1.4198,-1.4221,-1.4253,-1.4294,-1.432,-1.4359,-1.4424,-1.4434,-1.4453,-1.4459,-1.4464,-1.4471,-1.4508,-1.4517,-1.4417,-1.4417,-1.4417,0,0,-1.3988,-1.4014,-1.4038,-1.4092,-1.4116,-1.4156,-1.4135,-1.4178,-1.4209,-1.4205,-1.426,-1.4279,-1.4316,-1.4378,-1.4406,-1.4395,-1.45,-1.447,-1.4474,-1.4477,-1.4513,-1.4523,-1.4531,-1.442,-1.442,-1.4419,0,0,-1.4049,-1.4072,-1.4118,-1.4142,-1.4179,-1.4192,-1.4203,-1.4239,-1.4251,-1.4307,-1.4305,-1.4342,-1.4411,-1.4437,-1.446,-1.4531,-1.4529,-1.4544,-1.4577,-1.4613,-1.4621,-1.4628,-1.4654,-1.4664,-1.455,-1.455,-1.455,0,-1.4073,-1.4133,-1.4142,-1.4186,-1.421,-1.4208,-1.4255,-1.4278,-1.4326,-1.4343,-1.4329,-1.4416,-1.4441,-1.4509,-1.4527,-1.4545,-1.4559,-1.454,-1.4619,-1.4626,-1.4633,-1.4658,-1.4668,-1.4552,-1.4551,-1.4551,-1.4551,0,-1.416,-1.4202,-1.4234,-1.428,-1.4307,-1.4353,-1.437,-1.4397,-1.44,-1.4416,-1.4474,-1.4503,-1.4548,-1.4564,-1.4568,-1.4634,-1.4626,-1.4615,-1.4592,-1.4644,-1.4668,-1.4678,-1.4554,-1.4553,-1.4553,-1.4553,0,0,-1.4233,-1.4283,-1.4295,-1.4316,-1.4355,-1.4388,-1.4434,-1.4477,-1.4501,-1.4534,-1.4573,-1.4632,-1.4622,-1.4648,-1.4655,-1.4686,-1.4743,-1.4672,-1.4673,-1.4685,-1.4819,-1.4827,-1.4838,-1.4741,-1.4742,-1.4744,-1.4816,0,-1.4299,-1.4379,-1.4389,-1.446,-1.4499,-1.4497,-1.4537,-1.4567,-1.4583,-1.4619,-1.4637,-1.4678,-1.4662,-1.4678,-1.4709,-1.4729,-1.477,-1.4724,-1.4779,-1.4781,-1.4771,-1.4851,-1.486,-1.4927,-1.4825,-1.4827,-1.4828,0,-1.4386,-1.4421,-1.4496,-1.4531,-1.4548,-1.4584,-1.4625,-1.4659,-1.4693,-1.4702,-1.4731,-1.4734,-1.4782,-1.4756,-1.4824,-1.4792,-1.4815,-1.4829,-1.4832,-1.4838,-1.4808,-1.4861,-1.4948,-1.4958,-1.4843,-1.4842,-1.4841,0,-1.4433,-1.4499,-1.4553,-1.457,-1.4612,-1.4638,-1.4657,-1.4688,-1.4714,-1.475,-1.4767,-1.4809,-1.4832,-1.4864,-1.4879,-1.4858,-1.4947,-1.4921,-1.4957,-1.4957,-1.4976,-1.4975,-1.507,-1.4989,-1.4989,-1.4989,-1.4989,0,-1.4507,-1.4553,-1.4574,-1.4608,-1.466,-1.4671,-1.4723,-1.4741,-1.4769,-1.4807,-1.4808,-1.4843,-1.486,-1.4898,-1.491,-1.4965,-1.4976,-1.4986,-1.4988,-1.4986,-1.4985,-1.5002,-1.4999,-1.4992,-1.4991,-1.4991,-1.499,0,-1.4568,-1.4584,-1.4643,-1.4678,-1.4688,-1.4725,-1.4755,-1.4788,-1.4803,-1.4851,-1.4862,-1.4887,-1.4932,-1.495,-1.5005,-1.5013,-1.5078,-1.5076,-1.5066,-1.5067,-1.5103,-1.51,-1.5213,-1.5229,-1.5136,-1.5137,-1.5138,0,-1.4614,-1.465,-1.4688,-1.4713,-1.4733,-1.4772,-1.4799,-1.4811,-1.4839,-1.488,-1.4908,-1.4953,-1.499,-1.5063,-1.5086,-1.5129,-1.513,-1.5166,-1.5136,-1.5133,-1.5132,-1.513,-1.5134,-1.5172,-1.5173,-1.5174,-1.5174,0,-1.4695,-1.4701,-1.4738,-1.4778,-1.4809,-1.4841,-1.4873,-1.4893,-1.4911,-1.4942,-1.4988,-1.5016,-1.5073,-1.5118,-1.5162,-1.5183,-1.5183,-1.5183,-1.5194,-1.5193,-1.5186,-1.5192,-1.5082,-1.5181,-1.518,-1.518,-1.518,-1.5179,-1.4751,-1.4783,-1.4815,-1.4857,-1.4881,-1.4911,-1.4944,-1.4963,-1.5001,-1.5047,-1.5053,-1.5102,-1.5137,-1.5196,-1.5218,-1.5258,-1.5249,-1.5264,-1.5269,-1.5273,-1.5276,-1.5179,-1.5266,-1.5266,-1.5266,-1.5266,-1.5266,0,-1.4833,-1.4853,-1.4891,-1.4935,-1.4968,-1.4963,-1.4998,-1.5026,-1.507,-1.5101,-1.5137,-1.519,-1.5234,-1.5261,-1.5306,-1.5333,-1.5334,-1.5344,-1.5343,-1.5349,-1.5281,-1.5268,-1.5343,-1.5343,-1.5343,-1.5343,-1.5343,-1.5343,-1.4879,-1.4933,-1.4943,-1.501,-1.5031,-1.5079,-1.5099,-1.5127,-1.5152,-1.5211,-1.5247,-1.5264,-1.5294,-1.5341,-1.5382,-1.5389,-1.5406,-1.5418,-1.5424,-1.5361,-1.5353,-1.5345,-1.5333,-1.5421,-1.5421,-1.5489,-1.5489,-1.549]}]]